NOAA 16 DEB, 42351

Orbit data source: Space-Track

NOAA 16 DEB, 42351 is space debris in SSO originally from a launch on Thu, 21 Sep 2000 UTC launched from the Air Force Western Test Range (AFWTR). Debris objects in space refer to the collection of defunct objects orbiting the Earth. Examples of debris include non-operational satellites, rocket bodies, and fragments generated from explosions, collisions, or faulty payload assembly.

Loading next visibility...
Identifier
42351, 2000-055QT
Orbit
SSO
Country
Flag of USUS
Related business
Manufacturer
Unknown
Mission
Spacecraft
Bus & Motor
Unknown
Mass
Unknown
Launch date (UTC)
2000-09-21 (26 years ago)
Launch vehicle
Unknown
Launch site
Air Force Western Test Range (AFWTR)
Object type
Payload
Rocket body
Debris
Shape & HBR
Unknown shape, 0.1 m
Radar Cross Section
Small (<0.1 m²)

Expand to show TLE details & history
Last TLE update: 1 week ago

TLE from 1 week ago
0 NOAA 16 DEB
1 42351U 00055QT  26151.15528850  .00016339  00000-0  31477-2 0  9990
2 42351  98.6995 288.7015 0028135 355.6449   4.4502 14.63364148530978
Epoch: 2026-05-31T03:43Z
TLE epoch observation values (Epoch: 2026-05-31T03:43:36.926Z)
Latitude
-0.00005°
Longitude
-15.86338°
Altitude
665.498 km
Speed
7.535 km/s
True Right ascension
19h 14m 48s
True Declination
0° 00' 00"
Sunlit
Object was in full shadow at epoch
Visualization orbit readout
Latitude
Unknown
Longitude
Unknown
Altitude
Unknown
Speed
Unknown
Apparent Right ascension
Unknown
Apparent Declination
Unknown
Sunlit
N/A
Visualization observer readout
Local Sidereal Time
16:42:23
Azimuth
Unknown
Elevation
Unknown
Doppler factor
Unknown
Orbital elements
Apogee altitude
699.289 km
Perigee altitude
659.576 km
Semi-major axis
7,057.57 km
Eccentricity
0.00281
Inclination
98.6995°
RAAN
288.7015°
Arg. of periapsis
355.6449°
True anomaly
4.4753°
Mean anomaly
4.4502°
Eccentric anomaly
4.46274°
Mean motion
3.66067 °/min
Orbital period
98.34 mins
BSTAR
0.0031477
Loading maneuver chart data...
Computing Atmospheric mass density...

Documentation

Showing up to 5 results
|